User: anonymous   Login
Location: Kalberh�ni
(46.4610°N, 7.2453°E)
Time: 17:51:04
(UTC+00:00)
Language:

Meteor 1-4 Rocket - Orbit

View from above orbital plane
View from above orbital plane
View from above satellite
View from above satellite

Ground track
Ground track

The orbit data is extracted from the following two-line orbital elements,

1  4394U 70037B   21264.50213338  .00001704  00000-0  54563-4 0  9996
2  4394  81.2438 342.3311 0037358 193.3241 166.7013 15.31084886802811
Epoch (UTC): 21 September 2021 12:03:04
Eccentricity: 0.0037358
inclination: 81.2438°
perigee height: 447 km
apogee height: 498 km
right ascension of ascending node: 342.3311°
argument of perigee: 193.3241°
revolutions per day: 15.31084886
mean anomaly at epoch: 166.7013°
orbit number at epoch: 80281

The dashed part of the orbit path shows where the satellite is in the earth's shadow,  

DLR